Weather History for Salt Lake City, UT

Change the Weather History Date:

Sunday, September 2, 2012

  Actual Average Record
Temperature  
Mean Temperature 71 °F 72 °F  
Max Temperature 83 °F 85 °F 98 °F (1947)
Min Temperature 58 °F 59 °F 41 °F (1964)
Degree Days  
Heating Degree Days 0 1  
Month to date heating degree days 0 1  
Since 1 July heating degree days 0 6  
Cooling Degree Days 6 7  
Month to date cooling degree days 13 15  
Year to date cooling degree days 1456 1051  
Growing Degree Days 20 (Base 50)    
Moisture  
Dew Point 55 °F    
Average Humidity 62    
Maximum Humidity 90    
Minimum Humidity 34    
Precipitation  
Precipitation 0.00 in 0.03 in 1.74 in (1886)
Month to date precipitation 0.41 0.06  
Year to date precipitation 7.95 10.57  
Snow  
Snow 0.00 in 0.00 in - ()
Month to date snowfall 0.0 0.0  
Since 1 July snowfall 0.0 0.0  
Snow Depth 0.00 in    
Sea Level Pressure  
Sea Level Pressure 29.99 in    
Wind  
Wind Speed 3 mph (NNE)    
Max Wind Speed 10 mph    
Max Gust Speed 14 mph    
Visibility 10 miles    
Events      
T = Trace of Precipitation, MM = Missing Value Source: NWS Daily Summary

Daily Weather History Graph

Daily Weather History Graph

Search for Another Location

Airport:

Trip Planner

Search our weather history database for the weather conditions in past years. The results will help you decide how hot, cold, wet, or windy it might be!

Date:

Astronomy

Sep. 02, 2012 Rise Set
Actual Time 6:56 AM MDT 7:57 PM MDT
Civil Twilight 6:28 AM MDT 8:25 PM MDT
Nautical Twilight 5:54 AM MDT 8:58 PM MDT
Astronomical Twilight 5:19 AM MDT 9:33 PM MDT
Moon 8:45 PM MDT (9/2) 9:09 AM MDT (9/2)
Length of Visible Light 13h 57m
Length of Day
13h 01m
Waning Gibbous, 95% of the Moon is Illuminated
Sep 2
Waning Gibbous
Sep 8
Last Quarter
Sep 15
New
Sep 22
First Quarter
Sep 29
Full

Hourly Weather History & Observations

Time (MDT) Temp. Heat Index Dew Point Humidity Pressure Visibility Wind Dir Wind Speed Gust Speed Precip Events Conditions
12:53 AM 64.0 °F - 57.9 °F 80% 29.98 in 10.0 mi East 3.5 mph - 0.00 in   Mostly Cloudy
1:53 AM 64.4 °F - 57.2 °F 77% 30.13 in 10.0 mi East 8.1 mph - N/A   Mostly Cloudy
2:53 AM 64.0 °F - 57.0 °F 78% 29.99 in 10.0 mi ESE 9.2 mph - N/A   Scattered Clouds
3:53 AM 62.1 °F - 57.0 °F 84% 29.99 in 10.0 mi Calm Calm - N/A   Partly Cloudy
4:53 AM 60.1 °F - 55.9 °F 86% 29.99 in 10.0 mi SE 4.6 mph - N/A   Clear
5:53 AM 60.1 °F - 57.0 °F 90% 30.00 in 10.0 mi SSE 4.6 mph - N/A   Partly Cloudy
6:53 AM 59.0 °F - 55.0 °F 87% 30.03 in 10.0 mi SSE 3.5 mph - N/A   Partly Cloudy
7:53 AM 61.0 °F - 55.0 °F 81% 30.04 in 10.0 mi Calm Calm - N/A   Clear
8:53 AM 64.0 °F - 55.0 °F 73% 30.05 in 10.0 mi Calm Calm - N/A   Partly Cloudy
9:53 AM 68.0 °F - 55.9 °F 65% 30.05 in 10.0 mi Calm Calm - N/A   Partly Cloudy
10:53 AM 73.0 °F - 55.0 °F 53% 30.04 in 10.0 mi NNE 4.6 mph - N/A   Partly Cloudy
11:53 AM 75.0 °F - 54.0 °F 48% 30.02 in 10.0 mi NNW 4.6 mph - N/A   Partly Cloudy
12:53 PM 77.0 °F - 53.1 °F 43% 30.01 in 10.0 mi North 3.5 mph - N/A   Partly Cloudy
1:53 PM 81.0 °F 80.5 °F 54.0 °F 39% 29.98 in 10.0 mi Variable 3.5 mph - N/A   Scattered Clouds
2:53 PM 82.0 °F 81.4 °F 55.0 °F 39% 29.96 in 10.0 mi NNW 9.2 mph - N/A   Scattered Clouds
3:53 PM 82.0 °F 81.3 °F 54.0 °F 38% 29.94 in 10.0 mi NW 9.2 mph - N/A   Scattered Clouds
4:53 PM 82.4 °F 81.4 °F 53.6 °F 37% 30.07 in 10.0 mi NW 6.9 mph - N/A   Scattered Clouds
5:53 PM 82.9 °F - 51.1 °F 33% 29.91 in 10.0 mi North 9.2 mph - N/A   Scattered Clouds
6:53 PM 80.1 °F - 52.0 °F 38% 29.91 in 10.0 mi NNW 11.5 mph - N/A   Partly Cloudy
7:53 PM 77.0 °F - 55.0 °F 47% 29.92 in 10.0 mi North 9.2 mph - N/A   Clear
8:53 PM 73.0 °F - 55.0 °F 53% 29.93 in 10.0 mi North 6.9 mph - N/A   Clear
9:53 PM 71.1 °F - 57.9 °F 63% 29.94 in 10.0 mi Calm Calm - N/A   Clear
10:53 PM 69.1 °F - 55.9 °F 63% 29.94 in 10.0 mi SSE 4.6 mph - N/A   Clear
11:53 PM 66.9 °F - 52.0 °F 59% 29.94 in 10.0 mi SSE 8.1 mph - N/A   Clear